EW8696 Weather Reports


Display with metric or nautical units.
time (UTC)temp
F
wind
direction
speed
MPH
gust
MPH
rain 1hr
in
rain 24hr
in
rain mn
in
humidity
%
barometer
mb
20260509173049 57 190 0.0 0.0 0.00 0.00 0.00 61 1023.3
20260509171541 56 190 0.0 0.0 0.00 0.00 0.00 63 1023.5
20260509170041 58 190 0.0 0.0 0.00 0.00 0.00 61 1023.3
20260509164540 59 190 0.0 0.0 0.00 0.00 0.00 59 1023.4
20260509163040 60 190 0.0 8.0 0.00 0.00 0.00 56 1023.2
20260509161539 61 190 1.0 5.0 0.00 0.00 0.00 55 1023.0
20260509160043 63 190 0.0 5.0 0.00 0.00 0.00 52 1022.8
20260509154540 64 190 2.0 6.0 0.00 0.00 0.00 49 1022.7
20260509153044 66 190 5.0 8.0 0.00 0.00 0.00 46 1022.6
20260509151536 68 190 7.0 13.0 0.00 0.00 0.00 43 1022.6
20260509150040 69 156 8.0 13.0 0.00 0.00 0.00 42 1022.6
20260509144550 70 169 8.0 17.0 0.00 0.00 0.00 40 1022.5
20260509143036 71 163 8.0 15.0 0.00 0.00 0.00 38 1022.5
20260509141538 71 144 8.0 14.0 0.00 0.00 0.00 37 1022.5
20260509140034 71 122 10.0 20.0 0.00 0.00 0.00 36 1022.6
20260509134556 71 153 11.0 18.0 0.00 0.00 0.00 37 1022.6
20260509133034 71 139 7.0 16.0 0.00 0.00 0.00 36 1022.6
20260509131530 71 127 8.0 19.0 0.00 0.00 0.00 37 1022.9
20260509130031 71 114 9.0 16.0 0.00 0.00 0.00 36 1023.0
20260509124533 71 143 8.0 17.0 0.00 0.00 0.00 37 1023.1
20260509123026 71 119 10.0 17.0 0.00 0.00 0.00 38 1023.4
20260509121538 71 132 11.0 18.0 0.00 0.00 0.00 38 1023.6
20260509120020 70 118 8.0 20.0 0.00 0.00 0.00 38 1023.9
20260509114529 70 114 6.0 22.0 0.00 0.00 0.00 39 1024.2
20260509113022 69 190 7.0 16.0 0.00 0.00 0.00 39 1024.5
20260509111512 70 145 10.0 17.0 0.00 0.00 0.00 42 1024.8
20260509110007 69 134 6.0 13.0 0.00 0.00 0.00 43 1025.1
20260509104504 67 190 5.0 15.0 0.00 0.00 0.00 43 1025.5
20260509103106 67 190 0.0 11.0 0.00 0.00 0.00 43 1025.9
20260509101657 66 190 1.0 14.0 0.00 0.00 0.00 42 1026.3
20260509100057 66 190 2.0 13.0 0.00 0.00 0.00 43 1026.9
20260509094559 65 190 1.0 12.0 0.00 0.00 0.00 44 1027.3
20260509093054 65 190 2.0 15.0 0.00 0.00 0.00 43 1027.6
20260509091548 64 190 0.0 11.0 0.00 0.00 0.00 45 1027.7
20260509090044 63 190 2.0 13.0 0.00 0.00 0.00 47 1028.1
20260509084544 62 190 0.0 8.0 0.00 0.00 0.00 49 1028.3
20260509083036 60 190 0.0 9.0 0.00 0.00 0.00 52 1028.7
20260509081538 58 190 0.0 4.0 0.00 0.00 0.00 58 1029.0
20260509080028 56 190 0.0 5.0 0.00 0.00 0.00 63 1029.1
20260509074534 54 190 0.0 1.0 0.00 0.00 0.00 69 1029.2
20260509073018 52 190 0.0 2.0 0.00 0.00 0.00 74 1029.1
20260509071513 50 190 0.0 2.0 0.00 0.00 0.00 78 1029.2
20260509070012 48 190 0.0 0.0 0.00 0.00 0.00 82 1029.1
20260509064505 46 190 0.0 5.0 0.00 0.00 0.00 86 1029.2
20260509063001 45 190 0.0 1.0 0.00 0.00 0.00 89 1029.0
20260509061556 43 190 0.0 0.0 0.00 0.00 0.00 91 1029.0
20260509060053 41 190 0.0 0.0 0.00 0.00 0.00 91 1028.9
20260509054559 40 190 0.0 0.0 0.00 0.00 0.00 92 1028.8
20260509053051 38 190 0.0 0.0 0.00 0.00 0.00 92 1028.6
20260509051551 37 190 0.0 0.0 0.00 0.00 0.00 92 1028.6
20260509050046 37 190 0.0 0.0 0.00 0.00 0.00 92 1028.6
20260509044545 36 87 0.0 0.0 0.00 0.00 0.00 91 1028.4
20260509043044 37 190 0.0 0.0 0.00 0.00 0.00 91 1028.2
20260509041610 37 190 0.0 0.0 0.00 0.00 0.00 91 1028.1
20260509040044 37 87 0.0 0.0 0.00 0.00 0.00 91 1028.1
20260509034542 37 190 0.0 0.0 0.00 0.00 0.00 91 1028.1
20260509033041 37 88 0.0 0.0 0.00 0.00 0.00 92 1028.0
20260509031540 37 190 0.0 0.0 0.00 0.00 0.00 91 1028.0
20260509030040 37 87 0.0 0.0 0.00 0.00 0.00 91 1027.9
20260509024539 37 87 0.0 0.0 0.00 0.00 0.00 91 1027.9
20260509023048 37 87 0.0 0.0 0.00 0.00 0.00 91 1027.6
20260509021537 37 88 0.0 0.0 0.00 0.00 0.00 91 1027.7
20260509020045 38 88 0.0 0.0 0.00 0.00 0.00 91 1027.8
20260509014533 38 87 0.0 0.0 0.00 0.00 0.00 91 1027.8
20260509013041 38 87 0.0 0.0 0.00 0.00 0.00 91 1028.0
20260509011533 38 88 0.0 0.0 0.00 0.00 0.00 91 1028.1
20260509010030 38 88 0.0 0.0 0.00 0.00 0.00 91 1028.3
20260509004533 38 190 0.0 0.0 0.00 0.00 0.00 91 1028.4
20260509003030 38 88 0.0 0.0 0.00 0.00 0.00 91 1028.5
20260509001527 38 87 0.0 0.0 0.00 0.00 0.00 91 1028.6
20260509000025 39 88 0.0 0.0 0.00 0.00 0.00 91 1028.4
20260508234529 39 190 0.0 0.0 0.00 0.00 0.00 91 1028.4
20260508233024 39 87 0.0 0.0 0.00 0.00 0.00 91 1028.5
20260508231523 39 190 0.0 0.0 0.00 0.00 0.00 91 1028.4
20260508230033 39 88 0.0 0.0 0.00 0.00 0.00 91 1028.2
20260508224526 39 88 0.0 0.0 0.00 0.00 0.00 91 1028.2
20260508223027 39 190 0.0 0.0 0.00 0.00 0.00 90 1028.3
20260508221519 40 87 0.0 0.0 0.00 0.00 0.00 90 1028.3
20260508220025 40 87 0.0 0.0 0.00 0.00 0.00 90 1028.5
20260508214525 40 88 0.0 0.0 0.00 0.00 0.00 89 1028.8
20260508213016 41 87 0.0 0.0 0.00 0.00 0.00 89 1028.8
20260508211527 41 87 0.0 0.0 0.00 0.00 0.00 89 1028.8
20260508210015 42 190 0.0 0.0 0.00 0.00 0.00 88 1028.9
20260508204514 42 190 0.0 0.0 0.00 0.00 0.00 88 1028.9
20260508203013 42 190 0.0 0.0 0.00 0.00 0.00 87 1029.0
20260508201515 43 190 0.0 0.0 0.00 0.00 0.00 87 1028.8
20260508200015 43 190 0.0 0.0 0.00 0.00 0.00 86 1028.8
20260508194526 43 190 0.0 0.0 0.00 0.00 0.00 86 1028.9
20260508193011 43 190 0.0 0.0 0.00 0.00 0.00 85 1028.8
20260508191511 44 190 0.0 0.0 0.00 0.00 0.00 85 1028.6
20260508190013 44 190 0.0 0.0 0.00 0.00 0.00 85 1028.5
20260508184510 45 190 0.0 0.0 0.00 0.00 0.00 84 1028.6
20260508183020 46 190 0.0 0.0 0.00 0.00 0.00 82 1028.6
20260508181510 47 190 0.0 0.0 0.00 0.00 0.00 79 1028.5
20260508180013 48 190 0.0 0.0 0.00 0.00 0.00 75 1028.3
20260508174508 48 190 0.0 0.0 0.00 0.00 0.00 73 1028.3